Time,TemperatureF,DewpointF,PressureIn,WindDirection,WindDirectionDegrees,WindSpeedMPH,WindSpeedGustMPH,Humidity,HourlyPrecipIn,Conditions,Clouds,dailyrainin,SoftwareType,DateUTC
2013-11-26 00:03:00,30.0,25.5,29.93,NW,315,4.0,9.0,83,0.00,,,0.00,meteohub,2013-11-26 06:03:00,
2013-11-26 00:08:00,29.8,25.3,29.93,SW,225,4.0,9.0,83,0.00,,,0.00,meteohub,2013-11-26 06:08:00,
2013-11-26 00:13:00,29.8,25.3,29.93,SW,225,6.0,9.0,83,0.00,,,0.00,meteohub,2013-11-26 06:13:00,
2013-11-26 00:18:00,29.8,25.3,29.93,NW,315,4.0,10.0,83,0.00,,,0.00,meteohub,2013-11-26 06:18:00,
2013-11-26 00:23:00,29.8,25.3,29.93,West,270,3.0,10.0,83,0.00,,,0.00,meteohub,2013-11-26 06:23:00,
2013-11-26 00:28:00,29.8,25.3,29.92,West,270,6.0,10.0,83,0.00,,,0.00,meteohub,2013-11-26 06:28:00,
2013-11-26 00:33:00,29.7,25.2,29.92,SW,225,5.0,8.0,83,0.00,,,0.00,meteohub,2013-11-26 06:33:00,
2013-11-26 00:38:00,29.7,25.2,29.92,West,270,5.0,7.0,83,0.00,,,0.00,meteohub,2013-11-26 06:38:00,
2013-11-26 00:43:00,29.7,25.2,29.92,West,270,2.0,7.0,83,0.00,,,0.00,meteohub,2013-11-26 06:43:00,
2013-11-26 00:48:00,29.7,25.2,29.92,SW,225,6.0,8.0,83,0.00,,,0.00,meteohub,2013-11-26 06:48:00,
2013-11-26 00:54:00,29.7,25.2,29.92,NW,315,4.0,8.0,83,0.00,,,0.00,meteohub,2013-11-26 06:54:00,
2013-11-26 00:59:00,29.7,25.2,29.92,West,270,4.0,8.0,83,0.00,,,0.00,meteohub,2013-11-26 06:59:00,
2013-11-26 01:04:00,29.7,25.2,29.92,West,270,6.0,7.0,83,0.00,,,0.00,meteohub,2013-11-26 07:04:00,
2013-11-26 01:09:00,29.8,25.3,29.92,West,270,6.0,7.0,83,0.00,,,0.00,meteohub,2013-11-26 07:09:00,
2013-11-26 01:14:00,29.8,25.3,29.92,West,270,5.0,7.0,83,0.00,,,0.00,meteohub,2013-11-26 07:14:00,
2013-11-26 01:19:00,29.8,25.0,29.92,West,270,5.0,7.0,82,0.00,,,0.00,meteohub,2013-11-26 07:19:00,
2013-11-26 01:24:00,29.8,25.0,29.91,WNW,293,8.0,8.0,82,0.00,,,0.00,meteohub,2013-11-26 07:24:00,
2013-11-26 01:29:00,30.0,25.2,29.91,West,270,5.0,7.0,82,0.00,,,0.00,meteohub,2013-11-26 07:29:00,
2013-11-26 01:34:00,30.2,24.8,29.91,NE,45,2.0,8.0,80,0.00,,,0.00,meteohub,2013-11-26 07:34:00,
2013-11-26 01:39:00,30.4,25.0,29.91,NW,315,4.0,8.0,80,0.00,,,0.00,meteohub,2013-11-26 07:39:00,
2013-11-26 01:44:00,30.2,24.4,29.91,West,270,2.0,8.0,79,0.00,,,0.00,meteohub,2013-11-26 07:44:00,
2013-11-26 01:49:00,30.2,24.4,29.92,WNW,293,4.0,6.0,79,0.00,,,0.00,meteohub,2013-11-26 07:49:00,
2013-11-26 01:54:00,30.4,24.6,29.92,North,0,3.0,7.0,79,0.00,,,0.00,meteohub,2013-11-26 07:54:00,
2013-11-26 01:59:00,30.4,24.6,29.92,West,270,3.0,7.0,79,0.00,,,0.00,meteohub,2013-11-26 07:59:00,
2013-11-26 02:04:00,30.4,24.3,29.93,NW,315,4.0,7.0,78,0.00,,,0.00,meteohub,2013-11-26 08:04:00,
2013-11-26 02:09:00,30.6,24.4,29.93,West,270,4.0,7.0,78,0.00,,,0.00,meteohub,2013-11-26 08:09:00,
2013-11-26 02:14:00,30.7,24.6,29.93,NW,315,3.0,6.0,78,0.00,,,0.00,meteohub,2013-11-26 08:14:00,
2013-11-26 02:19:00,30.7,24.6,29.94,NW,315,3.0,6.0,78,0.00,,,0.00,meteohub,2013-11-26 08:19:00,
2013-11-26 02:24:00,30.9,24.6,29.93,West,270,4.0,6.0,77,0.00,,,0.00,meteohub,2013-11-26 08:24:00,
2013-11-26 02:29:00,31.1,24.4,29.93,SW,225,8.0,8.0,76,0.00,,,0.00,meteohub,2013-11-26 08:29:00,
2013-11-26 02:35:00,31.5,24.4,29.93,West,270,4.0,8.0,75,0.00,,,0.00,meteohub,2013-11-26 08:35:00,
2013-11-26 02:40:00,31.5,24.4,29.93,West,270,4.0,8.0,75,0.00,,,0.00,meteohub,2013-11-26 08:40:00,
2013-11-26 02:45:00,31.5,24.4,29.93,SW,225,4.0,8.0,75,0.00,,,0.00,meteohub,2013-11-26 08:45:00,
2013-11-26 02:50:00,31.5,24.1,29.93,West,270,6.0,8.0,74,0.00,,,0.00,meteohub,2013-11-26 08:50:00,
2013-11-26 02:55:00,31.5,24.1,29.92,NW,315,4.0,5.0,74,0.00,,,0.00,meteohub,2013-11-26 08:55:00,
2013-11-26 03:00:00,31.6,24.3,29.93,West,270,6.0,6.0,74,0.00,,,0.00,meteohub,2013-11-26 09:00:00,
2013-11-26 03:05:00,31.6,23.9,29.93,SW,225,4.0,6.0,73,0.00,,,0.00,meteohub,2013-11-26 09:05:00,
2013-11-26 03:10:00,31.6,23.9,29.93,West,270,4.0,6.0,73,0.00,,,0.00,meteohub,2013-11-26 09:10:00,
2013-11-26 03:15:00,31.6,23.9,29.92,West,270,3.0,6.0,73,0.00,,,0.00,meteohub,2013-11-26 09:15:00,
2013-11-26 03:20:00,31.6,23.7,29.92,West,270,8.0,8.0,72,0.00,,,0.00,meteohub,2013-11-26 09:20:00,
2013-11-26 03:25:00,31.8,23.5,29.92,West,270,4.0,8.0,71,0.00,,,0.00,meteohub,2013-11-26 09:25:00,
2013-11-26 03:30:00,31.8,23.5,29.91,SW,225,6.0,12.0,71,0.00,,,0.00,meteohub,2013-11-26 09:30:00,
2013-11-26 03:35:00,31.8,23.2,29.91,NW,315,7.0,12.0,70,0.00,,,0.00,meteohub,2013-11-26 09:35:00,
2013-11-26 03:40:00,32.0,23.0,29.91,NW,315,6.0,7.0,69,0.00,,,0.00,meteohub,2013-11-26 09:40:00,
2013-11-26 03:45:00,31.8,23.2,29.91,West,270,5.0,7.0,70,0.00,,,0.00,meteohub,2013-11-26 09:45:00,
2013-11-26 03:50:00,31.8,23.2,29.91,West,270,3.0,7.0,70,0.00,,,0.00,meteohub,2013-11-26 09:50:00,
2013-11-26 03:55:00,31.8,23.2,29.91,SW,225,3.0,6.0,70,0.00,,,0.00,meteohub,2013-11-26 09:55:00,
2013-11-26 04:00:00,31.6,23.0,29.91,SW,225,4.0,8.0,70,0.00,,,0.00,meteohub,2013-11-26 10:00:00,
2013-11-26 04:05:00,31.6,23.0,29.91,SW,225,4.0,8.0,70,0.00,,,0.00,meteohub,2013-11-26 10:05:00,
2013-11-26 04:11:00,31.3,23.0,29.91,West,270,6.0,8.0,71,0.00,,,0.00,meteohub,2013-11-26 10:11:00,
2013-11-26 04:16:00,31.5,23.2,29.91,West,270,4.0,10.0,71,0.00,,,0.00,meteohub,2013-11-26 10:16:00,
2013-11-26 04:21:00,31.3,23.0,29.90,WSW,248,6.0,10.0,71,0.00,,,0.00,meteohub,2013-11-26 10:21:00,
2013-11-26 04:26:00,31.3,23.0,29.91,SW,225,7.0,10.0,71,0.00,,,0.00,meteohub,2013-11-26 10:26:00,
2013-11-26 04:31:00,31.1,22.8,29.91,South,180,3.0,8.0,71,0.00,,,0.00,meteohub,2013-11-26 10:31:00,
2013-11-26 04:36:00,30.9,23.0,29.91,West,270,4.0,8.0,72,0.00,,,0.00,meteohub,2013-11-26 10:36:00,
2013-11-26 04:41:00,30.9,23.0,29.90,NW,315,5.0,9.0,72,0.00,,,0.00,meteohub,2013-11-26 10:41:00,
2013-11-26 04:46:00,30.7,22.8,29.91,NW,315,6.0,9.0,72,0.00,,,0.00,meteohub,2013-11-26 10:46:00,
2013-11-26 04:51:00,30.7,23.2,29.91,West,270,4.0,9.0,73,0.00,,,0.00,meteohub,2013-11-26 10:51:00,
2013-11-26 04:56:00,30.6,23.0,29.91,NW,315,8.0,9.0,73,0.00,,,0.00,meteohub,2013-11-26 10:56:00,
2013-11-26 05:01:00,30.6,23.0,29.91,NW,315,8.0,9.0,73,0.00,,,0.00,meteohub,2013-11-26 11:01:00,
2013-11-26 05:06:00,30.6,23.0,29.91,NW,315,3.0,8.0,73,0.00,,,0.00,meteohub,2013-11-26 11:06:00,
2013-11-26 05:11:00,30.4,23.2,29.91,NW,315,7.0,8.0,74,0.00,,,0.00,meteohub,2013-11-26 11:11:00,
2013-11-26 05:16:00,30.4,23.2,29.91,North,0,4.0,8.0,74,0.00,,,0.00,meteohub,2013-11-26 11:16:00,
2013-11-26 05:21:00,30.6,23.0,29.91,NW,315,4.0,8.0,73,0.00,,,0.00,meteohub,2013-11-26 11:21:00,
2013-11-26 05:26:00,30.6,23.0,29.91,NW,315,6.0,9.0,73,0.00,,,0.00,meteohub,2013-11-26 11:26:00,
2013-11-26 05:31:00,30.6,23.0,29.91,West,270,8.0,9.0,73,0.00,,,0.00,meteohub,2013-11-26 11:31:00,
2013-11-26 05:36:00,30.7,23.2,29.91,West,270,4.0,9.0,73,0.00,,,0.00,meteohub,2013-11-26 11:36:00,
2013-11-26 05:42:00,30.7,22.8,29.91,NW,315,3.0,8.0,72,0.00,,,0.00,meteohub,2013-11-26 11:42:00,
2013-11-26 05:47:00,30.7,22.8,29.91,West,270,7.0,9.0,72,0.00,,,0.00,meteohub,2013-11-26 11:47:00,
2013-11-26 05:52:00,30.7,22.8,29.91,SW,225,4.0,9.0,72,0.00,,,0.00,meteohub,2013-11-26 11:52:00,
2013-11-26 05:57:00,30.7,22.8,29.92,West,270,5.0,8.0,72,0.00,,,0.00,meteohub,2013-11-26 11:57:00,
2013-11-26 06:02:00,30.7,22.8,29.92,West,270,5.0,8.0,72,0.00,,,0.00,meteohub,2013-11-26 12:02:00,
2013-11-26 06:07:00,31.1,22.8,29.91,West,270,9.0,9.0,71,0.00,,,0.00,meteohub,2013-11-26 12:07:00,
2013-11-26 06:12:00,31.1,22.8,29.92,West,270,7.0,9.0,71,0.00,,,0.00,meteohub,2013-11-26 12:12:00,
2013-11-26 06:17:00,31.1,22.5,29.92,West,270,6.0,9.0,70,0.00,,,0.00,meteohub,2013-11-26 12:17:00,
2013-11-26 06:22:00,31.3,22.6,29.92,West,270,5.0,9.0,70,0.00,,,0.00,meteohub,2013-11-26 12:22:00,
2013-11-26 06:27:00,31.1,22.5,29.93,SW,225,5.0,9.0,70,0.00,,,0.00,meteohub,2013-11-26 12:27:00,
2013-11-26 06:32:00,31.1,22.5,29.93,SW,225,4.0,9.0,70,0.00,,,0.00,meteohub,2013-11-26 12:32:00,
2013-11-26 06:37:00,31.1,22.5,29.93,West,270,4.0,8.0,70,0.00,,,0.00,meteohub,2013-11-26 12:37:00,
2013-11-26 06:42:00,30.9,22.3,29.93,SW,225,8.0,8.0,70,0.00,,,0.00,meteohub,2013-11-26 12:42:00,
2013-11-26 06:47:00,30.9,22.6,29.94,West,270,8.0,8.0,71,0.00,,,0.00,meteohub,2013-11-26 12:47:00,
2013-11-26 06:52:00,30.9,22.6,29.94,West,270,6.0,9.0,71,0.00,,,0.00,meteohub,2013-11-26 12:52:00,
2013-11-26 06:57:00,30.9,22.6,29.94,SW,225,6.0,9.0,71,0.00,,,0.00,meteohub,2013-11-26 12:57:00,
2013-11-26 07:02:00,30.9,22.6,29.94,NW,315,7.0,8.0,71,0.00,,,0.00,meteohub,2013-11-26 13:02:00,
2013-11-26 07:07:00,30.7,22.5,29.94,WSW,248,5.0,8.0,71,0.00,,,0.00,meteohub,2013-11-26 13:07:00,
2013-11-26 07:12:00,30.7,22.5,29.94,West,270,8.0,8.0,71,0.00,,,0.00,meteohub,2013-11-26 13:12:00,
2013-11-26 07:17:00,30.7,22.8,29.93,NW,315,4.0,10.0,72,0.00,,,0.00,meteohub,2013-11-26 13:17:00,
2013-11-26 07:22:00,30.6,22.6,29.93,SW,225,4.0,10.0,72,0.00,,,0.00,meteohub,2013-11-26 13:22:00,
2013-11-26 07:27:00,30.4,22.8,29.92,NW,315,4.0,11.0,73,0.00,,,0.00,meteohub,2013-11-26 13:27:00,
2013-11-26 07:32:00,30.4,23.2,29.93,NW,315,8.0,11.0,74,0.00,,,0.00,meteohub,2013-11-26 13:32:00,
2013-11-26 07:37:00,30.4,23.2,29.92,North,0,8.0,11.0,74,0.00,,,0.00,meteohub,2013-11-26 13:37:00,
2013-11-26 07:42:00,30.4,23.2,29.92,North,0,11.0,11.0,74,0.00,,,0.00,meteohub,2013-11-26 13:42:00,
2013-11-26 07:47:00,30.4,23.2,29.93,NW,315,5.0,11.0,74,0.00,,,0.00,meteohub,2013-11-26 13:47:00,
2013-11-26 07:52:00,30.4,22.8,29.93,NW,315,11.0,11.0,73,0.00,,,0.00,meteohub,2013-11-26 13:52:00,
2013-11-26 07:57:00,30.6,22.6,29.93,NW,315,11.0,11.0,72,0.00,,,0.00,meteohub,2013-11-26 13:57:00,
2013-11-26 08:02:00,30.6,22.6,29.93,NW,315,11.0,11.0,72,0.00,,,0.00,meteohub,2013-11-26 14:02:00,
2013-11-26 08:07:00,30.6,22.3,29.93,NW,315,11.0,11.0,71,0.00,,,0.00,meteohub,2013-11-26 14:07:00,
2013-11-26 08:12:00,30.4,22.1,29.92,North,0,9.0,16.0,71,0.00,,,0.00,meteohub,2013-11-26 14:12:00,
2013-11-26 08:17:00,30.4,22.1,29.93,North,0,13.0,16.0,71,0.00,,,0.00,meteohub,2013-11-26 14:17:00,
2013-11-26 08:22:00,30.2,21.9,29.93,WNW,293,13.0,16.0,71,0.00,,,0.00,meteohub,2013-11-26 14:22:00,
2013-11-26 08:27:00,30.2,21.6,29.93,West,270,15.0,16.0,70,0.00,,,0.00,meteohub,2013-11-26 14:27:00,
2013-11-26 08:32:00,30.2,21.6,29.93,WNW,293,8.0,16.0,70,0.00,,,0.00,meteohub,2013-11-26 14:32:00,
2013-11-26 08:37:00,30.0,21.7,29.93,North,0,11.0,15.0,71,0.00,,,0.00,meteohub,2013-11-26 14:37:00,
2013-11-26 08:42:00,30.0,21.7,29.93,NW,315,12.0,15.0,71,0.00,,,0.00,meteohub,2013-11-26 14:42:00,
2013-11-26 08:47:00,30.2,21.6,29.93,NW,315,11.0,15.0,70,0.00,,,0.00,meteohub,2013-11-26 14:47:00,
2013-11-26 08:52:00,30.2,21.6,29.93,NW,315,13.0,15.0,70,0.00,,,0.00,meteohub,2013-11-26 14:52:00,
2013-11-26 08:57:00,30.2,21.6,29.93,NW,315,13.0,15.0,70,0.00,,,0.00,meteohub,2013-11-26 14:57:00,
2013-11-26 09:02:00,30.4,21.7,29.93,NW,315,13.0,15.0,70,0.00,,,0.00,meteohub,2013-11-26 15:02:00,
2013-11-26 09:07:00,30.2,21.6,29.94,North,0,14.0,14.0,70,0.00,,,0.00,meteohub,2013-11-26 15:07:00,
2013-11-26 09:12:00,30.4,21.7,29.94,North,0,6.0,15.0,70,0.00,,,0.00,meteohub,2013-11-26 15:12:00,
2013-11-26 09:17:00,30.2,21.9,29.94,NW,315,11.0,15.0,71,0.00,,,0.00,meteohub,2013-11-26 15:17:00,
2013-11-26 09:22:00,30.2,21.9,29.94,West,270,9.0,15.0,71,0.00,,,0.00,meteohub,2013-11-26 15:22:00,
2013-11-26 09:27:00,30.4,22.1,29.95,West,270,6.0,14.0,71,0.00,,,0.00,meteohub,2013-11-26 15:27:00,
2013-11-26 09:32:00,30.4,21.7,29.95,West,270,6.0,12.0,70,0.00,,,0.00,meteohub,2013-11-26 15:32:00,
2013-11-26 09:37:00,30.2,21.6,29.96,West,270,9.0,12.0,70,0.00,,,0.00,meteohub,2013-11-26 15:37:00,
2013-11-26 09:42:00,30.0,21.7,29.96,NW,315,8.0,12.0,71,0.00,,,0.00,meteohub,2013-11-26 15:42:00,
2013-11-26 09:47:00,29.8,21.9,29.96,NW,315,11.0,12.0,72,0.00,,,0.00,meteohub,2013-11-26 15:47:00,
2013-11-26 09:52:00,29.8,21.6,29.95,NW,315,15.0,15.0,71,0.00,,,0.00,meteohub,2013-11-26 15:52:00,
2013-11-26 09:57:00,29.7,21.4,29.95,North,0,11.0,17.0,71,0.00,,,0.00,meteohub,2013-11-26 15:57:00,
2013-11-26 10:02:00,29.7,21.4,29.96,NW,315,11.0,17.0,71,0.00,,,0.00,meteohub,2013-11-26 16:02:00,
2013-11-26 10:08:00,29.5,21.2,29.95,NW,315,18.0,18.0,71,0.00,,,0.00,meteohub,2013-11-26 16:08:00,
2013-11-26 10:13:00,29.3,20.7,29.95,North,0,15.0,20.0,70,0.00,,,0.00,meteohub,2013-11-26 16:13:00,
2013-11-26 10:18:00,29.3,20.7,29.95,North,0,15.0,20.0,70,0.00,,,0.00,meteohub,2013-11-26 16:18:00,
2013-11-26 10:23:00,29.3,20.7,29.95,NW,315,15.0,20.0,70,0.00,,,0.00,meteohub,2013-11-26 16:23:00,
2013-11-26 10:28:00,29.3,20.7,29.95,NW,315,14.0,19.0,70,0.00,,,0.00,meteohub,2013-11-26 16:28:00,
2013-11-26 10:33:00,29.1,20.8,29.95,NW,315,6.0,19.0,71,0.00,,,0.00,meteohub,2013-11-26 16:33:00,
2013-11-26 10:38:00,29.1,20.8,29.96,North,0,11.0,19.0,71,0.00,,,0.00,meteohub,2013-11-26 16:38:00,
2013-11-26 10:43:00,29.3,21.0,29.95,NW,315,11.0,17.0,71,0.00,,,0.00,meteohub,2013-11-26 16:43:00,
2013-11-26 10:48:00,29.3,21.0,29.96,NW,315,11.0,15.0,71,0.00,,,0.00,meteohub,2013-11-26 16:48:00,
2013-11-26 10:53:00,29.3,21.0,29.96,NW,315,8.0,20.0,71,0.00,,,0.00,meteohub,2013-11-26 16:53:00,
2013-11-26 10:58:00,29.3,21.0,29.96,NW,315,11.0,20.0,71,0.00,,,0.00,meteohub,2013-11-26 16:58:00,
2013-11-26 11:03:00,29.3,21.0,29.96,North,0,8.0,20.0,71,0.00,,,0.00,meteohub,2013-11-26 17:03:00,
2013-11-26 11:08:00,29.3,21.0,29.96,North,0,11.0,17.0,71,0.00,,,0.00,meteohub,2013-11-26 17:08:00,
2013-11-26 11:13:00,29.5,21.2,29.96,NW,315,10.0,13.0,71,0.00,,,0.00,meteohub,2013-11-26 17:13:00,
2013-11-26 11:19:00,29.7,21.0,29.95,North,0,9.0,15.0,70,0.00,,,0.00,meteohub,2013-11-26 17:19:00,
2013-11-26 11:24:00,29.8,20.7,29.96,NW,315,11.0,15.0,68,0.00,,,0.00,meteohub,2013-11-26 17:24:00,
2013-11-26 11:29:00,29.8,20.7,29.95,North,0,13.0,17.0,68,0.00,,,0.00,meteohub,2013-11-26 17:29:00,
2013-11-26 11:34:00,29.1,19.6,29.95,NW,315,15.0,17.0,67,0.00,,,0.00,meteohub,2013-11-26 17:34:00,
2013-11-26 11:39:00,28.8,19.2,29.96,NW,315,11.0,23.0,67,0.00,,,0.00,meteohub,2013-11-26 17:39:00,
2013-11-26 11:44:00,28.6,18.7,29.95,NW,315,15.0,23.0,66,0.00,,,0.00,meteohub,2013-11-26 17:44:00,
2013-11-26 11:49:00,28.6,18.7,29.96,NW,315,13.0,23.0,66,0.00,,,0.00,meteohub,2013-11-26 17:49:00,
2013-11-26 11:54:00,28.8,18.5,29.96,NW,315,16.0,19.0,65,0.00,,,0.00,meteohub,2013-11-26 17:54:00,
2013-11-26 11:59:00,28.8,18.1,29.96,NW,315,12.0,19.0,64,0.00,,,0.00,meteohub,2013-11-26 17:59:00,
2013-11-26 12:04:00,28.8,17.4,29.97,West,270,8.0,17.0,62,0.00,,,0.00,meteohub,2013-11-26 18:04:00,
2013-11-26 12:09:00,29.5,17.8,29.96,NW,315,11.0,18.0,61,0.00,,,0.00,meteohub,2013-11-26 18:09:00,
2013-11-26 12:14:00,29.3,16.7,29.96,NW,315,14.0,18.0,59,0.00,,,0.00,meteohub,2013-11-26 18:14:00,
2013-11-26 12:19:00,29.1,16.2,29.96,NW,315,17.0,20.0,58,0.00,,,0.00,meteohub,2013-11-26 18:19:00,
2013-11-26 12:24:00,29.3,16.0,29.96,NW,315,18.0,20.0,57,0.00,,,0.00,meteohub,2013-11-26 18:24:00,
2013-11-26 12:29:00,29.8,16.5,29.96,West,270,17.0,20.0,57,0.00,,,0.00,meteohub,2013-11-26 18:29:00,
2013-11-26 12:35:00,30.0,16.2,29.96,NW,315,9.0,19.0,56,0.00,,,0.00,meteohub,2013-11-26 18:35:00,
2013-11-26 12:40:00,31.1,16.9,29.95,NW,315,16.0,18.0,55,0.00,,,0.00,meteohub,2013-11-26 18:40:00,
2013-11-26 12:45:00,30.7,16.0,29.96,NW,315,16.0,17.0,54,0.00,,,0.00,meteohub,2013-11-26 18:45:00,
2013-11-26 12:50:00,30.2,15.6,29.96,NW,315,17.0,18.0,54,0.00,,,0.00,meteohub,2013-11-26 18:50:00,
2013-11-26 12:55:00,30.4,15.8,29.96,North,0,15.0,24.0,54,0.00,,,0.00,meteohub,2013-11-26 18:55:00,
2013-11-26 13:00:00,30.4,15.3,29.97,NW,315,17.0,24.0,53,0.00,,,0.00,meteohub,2013-11-26 19:00:00,
2013-11-26 13:05:00,30.6,15.1,29.96,North,0,13.0,24.0,52,0.00,,,0.00,meteohub,2013-11-26 19:05:00,
2013-11-26 13:10:00,30.0,14.5,29.97,NW,315,15.0,21.0,52,0.00,,,0.00,meteohub,2013-11-26 19:10:00,
2013-11-26 13:15:00,28.9,13.5,29.97,North,0,11.0,21.0,52,0.00,,,0.00,meteohub,2013-11-26 19:15:00,
2013-11-26 13:20:00,28.2,11.5,29.97,NW,315,18.0,20.0,49,0.00,,,0.00,meteohub,2013-11-26 19:20:00,
2013-11-26 13:25:00,27.9,11.1,29.98,North,0,17.0,20.0,49,0.00,,,0.00,meteohub,2013-11-26 19:25:00,
2013-11-26 13:30:00,27.9,11.7,29.99,NW,315,15.0,21.0,50,0.00,,,0.00,meteohub,2013-11-26 19:30:00,
2013-11-26 13:35:00,27.9,11.1,29.99,North,0,13.0,22.0,49,0.00,,,0.00,meteohub,2013-11-26 19:35:00,
2013-11-26 13:40:00,27.9,10.2,29.99,WNW,293,15.0,22.0,47,0.00,,,0.00,meteohub,2013-11-26 19:40:00,
2013-11-26 13:45:00,28.6,12.4,29.98,NW,315,16.0,22.0,50,0.00,,,0.00,meteohub,2013-11-26 19:45:00,
2013-11-26 13:50:00,29.1,12.4,29.98,NW,315,15.0,19.0,49,0.00,,,0.00,meteohub,2013-11-26 19:50:00,
2013-11-26 13:55:00,29.8,12.9,29.98,NW,315,12.0,19.0,49,0.00,,,0.00,meteohub,2013-11-26 19:55:00,
2013-11-26 14:01:00,28.6,11.3,29.99,WNW,293,16.0,21.0,48,0.00,,,0.00,meteohub,2013-11-26 20:01:00,
2013-11-26 14:06:00,27.3,9.3,29.99,North,0,14.0,21.0,46,0.00,,,0.00,meteohub,2013-11-26 20:06:00,
2013-11-26 14:11:00,27.1,9.5,30.00,NW,315,15.0,23.0,47,0.00,,,0.00,meteohub,2013-11-26 20:11:00,
2013-11-26 14:16:00,27.9,9.7,29.99,NW,315,22.0,23.0,46,0.00,,,0.00,meteohub,2013-11-26 20:16:00,
2013-11-26 14:21:00,27.5,8.4,29.99,North,0,22.0,23.0,44,0.00,,,0.00,meteohub,2013-11-26 20:21:00,
2013-11-26 14:26:00,27.3,7.7,30.00,North,0,23.0,23.0,43,0.00,,,0.00,meteohub,2013-11-26 20:26:00,
2013-11-26 14:31:00,27.0,6.4,30.00,WNW,293,15.0,26.0,41,0.00,,,0.00,meteohub,2013-11-26 20:31:00,
2013-11-26 14:36:00,27.1,6.1,30.01,NW,315,15.0,26.0,40,0.00,,,0.00,meteohub,2013-11-26 20:36:00,
2013-11-26 14:42:00,26.8,3.4,30.01,North,0,21.0,26.0,36,0.00,,,0.00,meteohub,2013-11-26 20:42:00,
2013-11-26 14:47:00,26.6,1.9,30.01,NW,315,15.0,23.0,34,0.00,,,0.00,meteohub,2013-11-26 20:47:00,
2013-11-26 14:52:00,26.4,2.5,30.02,NW,315,20.0,23.0,35,0.00,,,0.00,meteohub,2013-11-26 20:52:00,
2013-11-26 14:57:00,26.2,2.8,30.02,NW,315,14.0,26.0,36,0.00,,,0.00,meteohub,2013-11-26 20:57:00,
2013-11-26 15:02:00,26.1,2.8,30.01,North,0,20.0,26.0,36,0.00,,,0.00,meteohub,2013-11-26 21:02:00,
2013-11-26 15:07:00,25.9,2.7,30.02,NW,315,13.0,26.0,36,0.00,,,0.00,meteohub,2013-11-26 21:07:00,
2013-11-26 15:12:00,25.7,3.0,30.02,NW,315,15.0,23.0,37,0.00,,,0.00,meteohub,2013-11-26 21:12:00,
2013-11-26 15:17:00,25.7,3.0,30.02,NW,315,21.0,23.0,37,0.00,,,0.00,meteohub,2013-11-26 21:17:00,
2013-11-26 15:22:00,25.5,2.8,30.03,North,0,14.0,23.0,37,0.00,,,0.00,meteohub,2013-11-26 21:22:00,
2013-11-26 15:27:00,25.3,3.2,30.03,NW,315,17.0,21.0,38,0.00,,,0.00,meteohub,2013-11-26 21:27:00,
2013-11-26 15:32:00,25.0,3.0,30.03,North,0,16.0,21.0,38,0.00,,,0.00,meteohub,2013-11-26 21:32:00,
2013-11-26 15:37:00,24.8,3.4,30.03,NW,315,26.0,26.0,39,0.00,,,0.00,meteohub,2013-11-26 21:37:00,
2013-11-26 15:42:00,24.6,4.3,30.04,WNW,293,12.0,26.0,41,0.00,,,0.00,meteohub,2013-11-26 21:42:00,
2013-11-26 15:47:00,24.3,5.0,30.04,NW,315,20.0,26.0,43,0.00,,,0.00,meteohub,2013-11-26 21:47:00,
2013-11-26 15:52:00,23.9,4.6,30.04,North,0,19.0,26.0,43,0.00,,,0.00,meteohub,2013-11-26 21:52:00,
2013-11-26 15:57:00,23.9,4.6,30.04,North,0,15.0,23.0,43,0.00,,,0.00,meteohub,2013-11-26 21:57:00,
2013-11-26 16:02:00,23.7,4.5,30.04,North,0,15.0,23.0,43,0.00,,,0.00,meteohub,2013-11-26 22:02:00,
2013-11-26 16:07:00,23.5,4.8,30.04,NW,315,14.0,22.0,44,0.00,,,0.00,meteohub,2013-11-26 22:07:00,
2013-11-26 16:12:00,23.4,4.6,30.05,NW,315,21.0,23.0,44,0.00,,,0.00,meteohub,2013-11-26 22:12:00,
2013-11-26 16:17:00,22.8,4.6,30.05,North,0,16.0,23.0,45,0.00,,,0.00,meteohub,2013-11-26 22:17:00,
2013-11-26 16:22:00,22.6,4.5,30.06,NW,315,15.0,23.0,45,0.00,,,0.00,meteohub,2013-11-26 22:22:00,
2013-11-26 16:27:00,22.3,4.1,30.06,North,0,17.0,21.0,45,0.00,,,0.00,meteohub,2013-11-26 22:27:00,
2013-11-26 16:32:00,21.9,3.7,30.06,North,0,18.0,25.0,45,0.00,,,0.00,meteohub,2013-11-26 22:32:00,
2013-11-26 16:37:00,21.4,3.7,30.06,North,0,14.0,25.0,46,0.00,,,0.00,meteohub,2013-11-26 22:37:00,
2013-11-26 16:42:00,21.0,3.9,30.06,NW,315,13.0,25.0,47,0.00,,,0.00,meteohub,2013-11-26 22:42:00,
2013-11-26 16:47:00,20.8,3.7,30.06,NW,315,17.0,23.0,47,0.00,,,0.00,meteohub,2013-11-26 22:47:00,
2013-11-26 16:52:00,20.7,3.2,30.06,NW,315,11.0,21.0,46,0.00,,,0.00,meteohub,2013-11-26 22:52:00,
2013-11-26 16:57:00,20.5,2.5,30.07,North,0,13.0,21.0,45,0.00,,,0.00,meteohub,2013-11-26 22:57:00,
2013-11-26 17:02:00,20.3,2.3,30.06,WNW,293,13.0,21.0,45,0.00,,,0.00,meteohub,2013-11-26 23:02:00,
2013-11-26 17:08:00,20.1,2.1,30.06,NW,315,15.0,17.0,45,0.00,,,0.00,meteohub,2013-11-26 23:08:00,
2013-11-26 17:13:00,19.9,1.6,30.06,NW,315,16.0,18.0,44,0.00,,,0.00,meteohub,2013-11-26 23:13:00,
2013-11-26 17:18:00,19.8,1.4,30.06,North,0,11.0,18.0,44,0.00,,,0.00,meteohub,2013-11-26 23:18:00,
2013-11-26 17:23:00,19.6,1.2,30.07,NW,315,14.0,18.0,44,0.00,,,0.00,meteohub,2013-11-26 23:23:00,
2013-11-26 17:28:00,19.4,1.6,30.06,North,0,11.0,17.0,45,0.00,,,0.00,meteohub,2013-11-26 23:28:00,
2013-11-26 17:33:00,19.2,-0.6,30.07,North,0,15.0,17.0,41,0.00,,,0.00,meteohub,2013-11-26 23:33:00,
2013-11-26 17:38:00,18.9,-0.9,30.07,NW,315,12.0,17.0,41,0.00,,,0.00,meteohub,2013-11-26 23:38:00,
2013-11-26 17:43:00,18.7,-1.1,30.07,North,0,14.0,15.0,41,0.00,,,0.00,meteohub,2013-11-26 23:43:00,
2013-11-26 17:48:00,18.5,-1.3,30.07,NW,315,11.0,15.0,41,0.00,,,0.00,meteohub,2013-11-26 23:48:00,
2013-11-26 17:53:00,18.1,-1.7,30.07,NW,315,14.0,14.0,41,0.00,,,0.00,meteohub,2013-11-26 23:53:00,
2013-11-26 17:58:00,18.0,-1.8,30.07,NW,315,10.0,14.0,41,0.00,,,0.00,meteohub,2013-11-26 23:58:00,
2013-11-26 18:03:00,18.0,-1.3,30.07,NW,315,14.0,14.0,42,0.00,,,0.00,meteohub,2013-11-27 00:03:00,
2013-11-26 18:08:00,17.8,-1.5,30.07,North,0,13.0,14.0,42,0.00,,,0.00,meteohub,2013-11-27 00:08:00,
2013-11-26 18:13:00,17.6,-1.7,30.07,NW,315,15.0,15.0,42,0.00,,,0.00,meteohub,2013-11-27 00:13:00,
2013-11-26 18:18:00,17.6,-1.7,30.07,NW,315,15.0,16.0,42,0.00,,,0.00,meteohub,2013-11-27 00:18:00,
2013-11-26 18:23:00,17.4,-1.3,30.07,North,0,11.0,17.0,43,0.00,,,0.00,meteohub,2013-11-27 00:23:00,
2013-11-26 18:29:00,17.2,-1.5,30.07,NW,315,13.0,17.0,43,0.00,,,0.00,meteohub,2013-11-27 00:29:00,
2013-11-26 18:34:00,17.1,-1.7,30.07,North,0,15.0,17.0,43,0.00,,,0.00,meteohub,2013-11-27 00:34:00,
2013-11-26 18:39:00,17.1,-1.7,30.07,North,0,13.0,15.0,43,0.00,,,0.00,meteohub,2013-11-27 00:39:00,
2013-11-26 18:44:00,17.1,-1.7,30.07,North,0,19.0,19.0,43,0.00,,,0.00,meteohub,2013-11-27 00:44:00,
2013-11-26 18:49:00,17.1,-1.7,30.07,North,0,12.0,17.0,43,0.00,,,0.00,meteohub,2013-11-27 00:49:00,
2013-11-26 18:54:00,16.9,-1.8,30.07,NW,315,14.0,19.0,43,0.00,,,0.00,meteohub,2013-11-27 00:54:00,
2013-11-26 18:59:00,16.9,-1.8,30.07,North,0,11.0,19.0,43,0.00,,,0.00,meteohub,2013-11-27 00:59:00,
2013-11-26 19:04:00,16.9,-1.8,30.08,NW,315,19.0,19.0,43,0.00,,,0.00,meteohub,2013-11-27 01:04:00,
2013-11-26 19:09:00,16.9,-1.8,30.07,North,0,17.0,17.0,43,0.00,,,0.00,meteohub,2013-11-27 01:09:00,
2013-11-26 19:14:00,16.9,-1.8,30.07,NW,315,11.0,19.0,43,0.00,,,0.00,meteohub,2013-11-27 01:14:00,
2013-11-26 19:19:00,16.7,-1.8,30.07,North,0,17.0,19.0,43,0.00,,,0.00,meteohub,2013-11-27 01:19:00,
2013-11-26 19:24:00,16.5,-2.0,30.08,NW,315,10.0,19.0,43,0.00,,,0.00,meteohub,2013-11-27 01:24:00,
2013-11-26 19:29:00,16.5,-2.0,30.08,North,0,14.0,19.0,43,0.00,,,0.00,meteohub,2013-11-27 01:29:00,
2013-11-26 19:35:00,16.3,-2.2,30.08,North,0,13.0,18.0,43,0.00,,,0.00,meteohub,2013-11-27 01:35:00,
2013-11-26 19:40:00,16.0,-2.6,30.08,NW,315,11.0,18.0,43,0.00,,,0.00,meteohub,2013-11-27 01:40:00,
2013-11-26 19:45:00,16.0,-2.6,30.08,North,0,16.0,18.0,43,0.00,,,0.00,meteohub,2013-11-27 01:45:00,
2013-11-26 19:50:00,15.8,-2.2,30.07,NW,315,14.0,15.0,44,0.00,,,0.00,meteohub,2013-11-27 01:50:00,
2013-11-26 19:55:00,15.8,-2.2,30.07,NW,315,13.0,17.0,44,0.00,,,0.00,meteohub,2013-11-27 01:55:00,
2013-11-26 20:00:00,15.6,-2.0,30.07,WNW,293,17.0,17.0,45,0.00,,,0.00,meteohub,2013-11-27 02:00:00,
2013-11-26 20:05:00,15.6,-2.0,30.07,NW,315,18.0,18.0,45,0.00,,,0.00,meteohub,2013-11-27 02:05:00,
2013-11-26 20:10:00,15.6,-2.0,30.07,North,0,10.0,18.0,45,0.00,,,0.00,meteohub,2013-11-27 02:10:00,
2013-11-26 20:15:00,15.4,-2.2,30.07,West,270,15.0,20.0,45,0.00,,,0.00,meteohub,2013-11-27 02:15:00,
2013-11-26 20:20:00,15.4,-2.2,30.07,North,0,12.0,20.0,45,0.00,,,0.00,meteohub,2013-11-27 02:20:00,
2013-11-26 20:25:00,15.4,-2.2,30.06,North,0,12.0,20.0,45,0.00,,,0.00,meteohub,2013-11-27 02:25:00,
2013-11-26 20:30:00,15.3,-2.2,30.07,North,0,12.0,17.0,45,0.00,,,0.00,meteohub,2013-11-27 02:30:00,
2013-11-26 20:35:00,15.3,-1.8,30.06,North,0,14.0,16.0,46,0.00,,,0.00,meteohub,2013-11-27 02:35:00,
2013-11-26 20:41:00,14.9,-2.2,30.06,NW,315,13.0,16.0,46,0.00,,,0.00,meteohub,2013-11-27 02:41:00,
2013-11-26 20:46:00,14.7,-2.4,30.06,NW,315,13.0,17.0,46,0.00,,,0.00,meteohub,2013-11-27 02:46:00,
2013-11-26 20:51:00,14.7,-2.4,30.07,NW,315,12.0,17.0,46,0.00,,,0.00,meteohub,2013-11-27 02:51:00,
2013-11-26 20:56:00,14.5,-2.6,30.07,NW,315,11.0,17.0,46,0.00,,,0.00,meteohub,2013-11-27 02:56:00,
2013-11-26 21:01:00,14.5,-2.0,30.07,NW,315,15.0,17.0,47,0.00,,,0.00,meteohub,2013-11-27 03:01:00,
2013-11-26 21:06:00,14.4,-2.2,30.07,North,0,13.0,17.0,47,0.00,,,0.00,meteohub,2013-11-27 03:06:00,
2013-11-26 21:11:00,14.4,-2.2,30.07,NW,315,14.0,17.0,47,0.00,,,0.00,meteohub,2013-11-27 03:11:00,
2013-11-26 21:16:00,14.4,-2.2,30.07,NW,315,15.0,20.0,47,0.00,,,0.00,meteohub,2013-11-27 03:16:00,
2013-11-26 21:21:00,14.4,-2.2,30.07,North,0,18.0,20.0,47,0.00,,,0.00,meteohub,2013-11-27 03:21:00,
2013-11-26 21:26:00,14.4,-2.2,30.07,North,0,16.0,20.0,47,0.00,,,0.00,meteohub,2013-11-27 03:26:00,
2013-11-26 21:31:00,14.0,-2.6,30.07,NW,315,16.0,19.0,47,0.00,,,0.00,meteohub,2013-11-27 03:31:00,
2013-11-26 21:36:00,14.0,-2.0,30.07,NW,315,11.0,19.0,48,0.00,,,0.00,meteohub,2013-11-27 03:36:00,
2013-11-26 21:42:00,13.8,-1.8,30.07,NW,315,10.0,16.0,49,0.00,,,0.00,meteohub,2013-11-27 03:42:00,
2013-11-26 21:47:00,13.8,-1.8,30.07,NW,315,11.0,16.0,49,0.00,,,0.00,meteohub,2013-11-27 03:47:00,
2013-11-26 21:52:00,13.8,-1.8,30.07,NW,315,15.0,17.0,49,0.00,,,0.00,meteohub,2013-11-27 03:52:00,
2013-11-26 21:57:00,13.8,-1.8,30.07,North,0,14.0,17.0,49,0.00,,,0.00,meteohub,2013-11-27 03:57:00,
2013-11-26 22:02:00,13.8,-1.8,30.07,North,0,12.0,17.0,49,0.00,,,0.00,meteohub,2013-11-27 04:02:00,
2013-11-26 22:07:00,13.8,-1.8,30.07,NW,315,13.0,17.0,49,0.00,,,0.00,meteohub,2013-11-27 04:07:00,
2013-11-26 22:12:00,13.6,-2.0,30.08,NW,315,13.0,17.0,49,0.00,,,0.00,meteohub,2013-11-27 04:12:00,
2013-11-26 22:17:00,13.5,-2.2,30.08,North,0,15.0,17.0,49,0.00,,,0.00,meteohub,2013-11-27 04:17:00,
2013-11-26 22:22:00,13.5,-2.2,30.08,North,0,15.0,16.0,49,0.00,,,0.00,meteohub,2013-11-27 04:22:00,
2013-11-26 22:27:00,13.3,-2.4,30.08,NW,315,11.0,15.0,49,0.00,,,0.00,meteohub,2013-11-27 04:27:00,
2013-11-26 22:32:00,13.1,-2.0,30.08,North,0,13.0,15.0,50,0.00,,,0.00,meteohub,2013-11-27 04:32:00,
2013-11-26 22:37:00,12.9,-2.2,30.07,NW,315,11.0,15.0,50,0.00,,,0.00,meteohub,2013-11-27 04:37:00,
2013-11-26 22:42:00,12.9,-2.2,30.08,NW,315,12.0,15.0,50,0.00,,,0.00,meteohub,2013-11-27 04:42:00,
2013-11-26 22:47:00,12.7,-2.4,30.08,NW,315,11.0,15.0,50,0.00,,,0.00,meteohub,2013-11-27 04:47:00,
2013-11-26 22:52:00,12.7,-2.4,30.08,WNW,293,15.0,15.0,50,0.00,,,0.00,meteohub,2013-11-27 04:52:00,
2013-11-26 22:57:00,12.7,-2.4,30.08,North,0,14.0,15.0,50,0.00,,,0.00,meteohub,2013-11-27 04:57:00,
2013-11-26 23:01:00,12.7,-2.4,30.08,NW,315,15.0,17.0,50,0.00,,,0.00,meteohub,2013-11-27 05:01:00,
2013-11-26 23:02:00,12.7,-2.4,30.08,NW,315,12.0,17.0,50,0.00,,,0.00,meteohub,2013-11-27 05:02:00,
2013-11-26 23:03:00,12.7,-2.4,30.08,WNW,293,13.0,17.0,50,0.00,,,0.00,meteohub,2013-11-27 05:03:00,
2013-11-26 23:04:00,12.7,-2.4,30.08,NW,315,15.0,17.0,50,0.00,,,0.00,meteohub,2013-11-27 05:04:00,
2013-11-26 23:05:00,12.7,-2.4,30.08,North,0,13.0,17.0,50,0.00,,,0.00,meteohub,2013-11-27 05:05:00,
2013-11-26 23:07:00,12.7,-2.4,30.08,NW,315,11.0,17.0,50,0.00,,,0.00,meteohub,2013-11-27 05:07:00,
2013-11-26 23:12:00,12.7,-2.4,30.08,North,0,11.0,17.0,50,0.00,,,0.00,meteohub,2013-11-27 05:12:00,
2013-11-26 23:17:00,12.7,-2.7,30.08,WNW,293,11.0,16.0,49,0.00,,,0.00,meteohub,2013-11-27 05:17:00,
2013-11-26 23:22:00,12.6,-2.9,30.07,NW,315,15.0,16.0,49,0.00,,,0.00,meteohub,2013-11-27 05:22:00,
2013-11-26 23:27:00,12.4,-3.1,30.08,North,0,11.0,16.0,49,0.00,,,0.00,meteohub,2013-11-27 05:27:00,
2013-11-26 23:32:00,12.4,-3.1,30.08,NW,315,11.0,16.0,49,0.00,,,0.00,meteohub,2013-11-27 05:32:00,
2013-11-26 23:37:00,12.2,-3.3,30.08,NW,315,8.0,15.0,49,0.00,,,0.00,meteohub,2013-11-27 05:37:00,
2013-11-26 23:42:00,12.0,-2.6,30.08,NW,315,11.0,13.0,51,0.00,,,0.00,meteohub,2013-11-27 05:42:00,
2013-11-26 23:47:00,12.0,-2.6,30.08,North,0,8.0,13.0,51,0.00,,,0.00,meteohub,2013-11-27 05:47:00,
2013-11-26 23:52:00,12.0,-2.6,30.08,North,0,8.0,13.0,51,0.00,,,0.00,meteohub,2013-11-27 05:52:00,
2013-11-26 23:57:00,11.8,-2.7,30.07,NW,315,15.0,15.0,51,0.00,,,0.00,meteohub,2013-11-27 05:57:00,